Location: Putah Creek Observatory
(38.7021°N, 122.3865°W)
Time: 16:44:37
(UTC-07:00)

ISS - Pass Details

Date: 24 March 2019
Orbit: 408 x 410 km, 51.6° (Epoch: 26 April)

Event Time Altitude Azimuth Distance (km) Brightness Sun altitude
Rises 20:42:00 0° 264° (W) 2,330 1.4 -15.6°
Reaches altitude 10° 20:44:24 10° 281° (W) 1,470 0.4 -16.0°
Maximum altitude 20:47:02 22° 334° (NNW) 961 -1.5 -16.5°
Drops below altitude 10° 20:49:40 10° 27° (NNE) 1,474 -1.1 -17.0°
Enters shadow 20:50:01 - 30° (NNE) 1,586 -1.0 -17.1°
